Погода в Малой Пера

Россия / Республика Коми     64°10′51″N   54°49′56″E
темп.,
°C
ветер,
м/с
пор.,
м/с
влажн.,
%
обл.,
%
осадки,
мм/ч
давл.,
гПа
погр.,
м
9 марта, вт
вт900:00−33с379728 0.0 1011155
03:00−35ссз379814 0.0 1013148
06:00−35ссз259960 0.0 101397
09:00−29сз359655 0.0 1014241
12:00−24сз359474 0.0 1015379
15:00−22сз359286 0.0 1015500
18:00−27сз229993 0.0 101719
21:00−29зсз2210068 0.0 101719
10 марта, ср
ср1000:00−29зсз2210046 0.0 101819
03:00−30з2210068 0.0 101819
06:00−30з2310098 0.0 101726
09:00−24зюз359698 0.0 1015237
12:00−19юз499598 0.1 1012340
15:00−16зюз5109499 0.6 1010665
18:00−12сз51094100 0.6 1009997
21:00−16с4992100 0.8 1009597
11 марта, чт
чт1100:00−21с2697100 0.0 1011154
03:00−22с1297100 0.0 101237
06:00−21юв1199100 0.3 101231
09:00−18ю2396100 0.7 1012191
12:00−14ююз3594100 0.6 1012325
15:00−12юз3694100 0.8 1010409
18:00−12з2794100 0.1 1010244
21:00−14з3993100 0.1 1009352
12 марта, пт
пт1200:00−14з399299 0.0 1008416
03:00−14зюз41091100 0.0 1007495
06:00−13з41090100 0.0 1006635
09:00−11з5989100 0.0 1006722
12:00−10з5989100 0.1 1006745
15:00−9з51189100 0.2 1006751
18:00−10з41489100 0.0 1007684
21:00−9з51386100 0.0 1008645
13 марта, сб
сб1300:00−10зюз4148794 0.0 1009577
03:00−11зюз5138857 0.0 1010528
06:00−11зюз5148810 0.0 1011463
09:00−9зюз511855 0.0 1012511
12:00−6юз613830 0.0 1012548
15:00−6юз613800 0.0 1012723
18:00−8юз615830 0.0 1012692
21:00−9юз6168730 0.0 1012793